Location: Alladorf
(49.9620°N, 11.3790°E)
Time: 21:20:09
(UTC+00:00)

Cosmos 1782 - Pass Details

Date: 29 November 2020
Orbit: 537 x 551 km, 82.5° (Epoch: 24 January)

Event Time Altitude Azimuth Distance (km) Brightness Sun altitude
Exits shadow 04:14:39 75° 131° (SE) 578 2.9 -24.0°
Drops below altitude 10° 04:18:24 10° 168° (SSE) 1,826 5.7 -23.4°
Sets 04:20:34 0° 169° (S) 2,715 6.6 -23.0°
